Flag for Iceland Weather past 2 weeks in Keflavík, Iceland

Now
30 °F

Scattered showers. Broken clouds.


Feels Like: 19 °F
Forecast: 29 / 33 °F
Wind: 15 mph from South

Location: Keflavikurflugvollur

Current Time: Mar 29, 2015 at 10:55:37 AM

Latest Report: Mar 29, 2015 at 10:30 AM


Visibility: N/A

Pressure: 28.82 "Hg

Humidity: 75%

Dew point: 23 °F

Location of KeflavíkLocation

Historic Weather in Keflavík — Graph

°F

Keflavík temperature yesterday

Maximum temperature yesterday: 34 °F (at 12:30 AM)
Minimum temperature yesterday: 28 °F (at 7:30 AM)
Average temperature yesterday: 31 °F

Past Weeks' High & Low Weather Summary

 TemperatureHumidityPressure
High46 °F (Mar 15, 9:00 PM)100% (Mar 14, 9:31 PM)30.33 "Hg (Mar 14, 9:31 PM)
Low27 °F (Mar 24, 5:00 AM)48% (Mar 24, 3:30 PM)28.82 "Hg (Mar 29, 5:30 AM)
Average35 °F84%29.65 "Hg
* Reported Mar 14 10:00 AM — Mar 29 10:00 AM, Keflavík, Weather by CustomWeather, © 2015

Note: Actual official high and low records may vary slightly from our data, if they occured in-between our weather recording intervals... More about our weather records

Advertising

Keflavík weather history for previous 24 hours

 ConditionsComfort  
Time TempWeatherWind HumidityBarometerVisibility
10:00 AM
Sun, Mar 29
30 °FScattered showers. Broken clouds.8 mph80%28.82 "HgN/A
9:30 AM30 °FScattered showers. Broken clouds.6 mph86%28.82 "HgN/A
9:00 AM30 °FSnow flurries. Ice fog.10 mph93%28.82 "Hg1 mi
8:30 AM30 °FBroken clouds.12 mph80%28.82 "HgN/A
8:00 AM32 °FBroken clouds.10 mph64%28.82 "HgN/A
7:30 AM32 °FMostly cloudy.13 mph69%28.82 "HgN/A
7:00 AM32 °FCloudy.14 mph75%28.82 "HgN/A
6:30 AM32 °FScattered showers. Partly cloudy.13 mph69%28.82 "HgN/A
6:00 AM32 °FScattered showers. Partly cloudy.15 mph64%28.82 "HgN/A
5:30 AM32 °FLight snow. Partly cloudy.8 mph93%28.82 "HgN/A
5:00 AM30 °FPartly cloudy.8 mph93%28.85 "HgN/A
4:30 AM32 °FMostly cloudy.9 mph87%28.85 "HgN/A
4:00 AM32 °FLight snow. Partly cloudy.12 mph93%28.85 "HgN/A
3:30 AM30 °FLight snow. Partly cloudy.9 mph100%28.85 "Hg3 mi
3:00 AM30 °FSnow flurries. Partly cloudy.14 mph100%28.85 "HgN/A
2:30 AM30 °FMostly cloudy.18 mph100%28.88 "HgN/A
2:01 AM30 °FLight snow. Passing clouds.21 mph100%28.88 "Hg3 mi
1:30 AM30 °FSnow. Mostly cloudy.17 mph100%28.88 "Hg1 mi
1:00 AM30 °FSnow. Mostly cloudy.17 mph100%28.91 "Hg1 mi
12:30 AM28 °FSnow. Mostly cloudy.14 mph100%28.94 "Hg1 mi
12:00 AM30 °FScattered showers. Mostly cloudy.13 mph93%28.94 "HgN/A
11:31 PM
Sat, Mar 28
30 °FScattered showers. Mostly cloudy.9 mph86%28.97 "HgN/A
11:00 PM30 °FScattered showers. Mostly cloudy.9 mph86%29.00 "HgN/A
10:30 PM30 °FPartly cloudy.9 mph86%29.00 "HgN/A
10:00 PM30 °FPartly cloudy.9 mph86%29.00 "HgN/A
9:30 PM30 °FPartly cloudy.9 mph86%29.03 "HgN/A
9:00 PM30 °FPartly cloudy.9 mph86%29.03 "HgN/A
8:30 PM30 °FPartly cloudy.8 mph86%29.03 "HgN/A
8:00 PM30 °FBroken clouds.7 mph80%29.06 "HgN/A
7:30 PM32 °FScattered showers. Broken clouds.3 mph69%29.06 "HgN/A
7:00 PM32 °FScattered showers. Partly sunny.3 mph75%29.06 "HgN/A
6:30 PM32 °FScattered showers. Partly sunny.5 mph80%29.06 "HgN/A
6:00 PM34 °FScattered showers. Partly sunny.3 mph70%29.06 "HgN/A
5:30 PM32 °FScattered showers. Scattered clouds.5 mph75%29.06 "HgN/A
5:01 PM30 °FSnow flurries. Broken clouds.15 mph80%29.06 "HgN/A
4:31 PM34 °FScattered showers. Partly sunny.8 mph70%29.06 "HgN/A
4:00 PM34 °FScattered showers. Partly sunny.8 mph70%29.06 "HgN/A
3:30 PM34 °FScattered showers. Partly sunny.8 mph70%29.09 "HgN/A
3:00 PM34 °FScattered showers. Partly sunny.9 mph75%29.09 "HgN/A
2:30 PM34 °FScattered showers. Partly sunny.8 mph75%29.09 "HgN/A
2:00 PM32 °FScattered showers. Scattered clouds.7 mph80%29.09 "HgN/A
1:30 PM32 °FScattered showers. Scattered clouds.8 mph80%29.09 "HgN/A
1:00 PM32 °FScattered showers. Scattered clouds.10 mph80%29.09 "HgN/A
12:30 PM32 °FScattered showers. Broken clouds.8 mph80%29.09 "HgN/A
12:00 PM32 °FScattered showers. Broken clouds.7 mph80%29.09 "HgN/A
11:30 AM32 °FScattered showers. Scattered clouds.7 mph80%29.09 "HgN/A
11:00 AM32 °FScattered showers. Scattered clouds.10 mph75%29.09 "HgN/A
10:30 AM30 °FScattered showers. Scattered clouds.7 mph80%29.06 "HgN/A
10:00 AM28 °FScattered showers. Partly sunny.9 mph93%29.06 "HgN/A
Weather by CustomWeather, © 2015

See weather overviewHow to use our weather pages